contact:dominique.lefevre@mio.osupytheas.fr, maurice.libes@osupytheas.fr, didier.mallarino@osupytheas.fr
Project:EMSO http://www.emso-fr.org/EMSO-France
Depth: 2436.0 m
Title:EMSO Ligure Ouest : Data MII capteur AQUADOPP
Date,Latitude,Longitude,X_East,Y_North,Z_Up,Amplitude_X,Amplitude_Y,Amplitude_Z,Batterie,SoundSpeed,Heading,Pitch,Roll,Pressure,TIS,Speed,Direction
, degrees North, degrees East, m.s-1, m.s-1,m.s-1, 1, 1, 1, Volt, m.s-1, degree, degree, degree, dbar, degree_C, m.s-1, degree
2023-06-09T00:04:02,42.805,6.029,0.058,0.0,0.034,101.0,103.0,100.0,13.3,1505.2,326.5,-0.8,1.8,2471.595,13.28,0.057,90.0
2023-06-09T00:07:02,42.805,6.029,0.055,-0.059,-0.044,101.0,102.0,100.0,13.3,1505.2,348.2,-0.8,1.9,2471.55,13.28,0.08,137.0
2023-06-09T00:10:02,42.805,6.029,0.064,-0.025,0.001,102.0,104.0,99.0,13.4,1505.2,343.5,-0.8,1.8,2471.558,13.28,0.068,111.3
2023-06-09T00:13:02,42.805,6.029,0.054,-0.014,-0.01,101.0,102.0,100.0,13.3,1505.2,332.2,-0.7,1.8,2471.574,13.28,0.055,104.5
2023-06-09T00:16:02,42.805,6.029,0.065,-0.006,0.018,100.0,104.0,99.0,13.3,1505.2,328.1,-0.8,1.8,2471.561,13.29,0.065,95.3
2023-06-09T00:19:02,42.805,6.029,0.033,0.011,0.001,102.0,101.0,100.0,13.4,1505.2,320.5,-0.8,1.8,2471.537,13.29,0.034,71.6
2023-06-09T00:22:02,42.805,6.029,0.031,0.016,-0.024,101.0,103.0,100.0,13.4,1505.2,322.6,-0.8,1.8,2471.538,13.29,0.034,62.7
2023-06-09T00:25:02,42.805,6.029,0.055,-0.023,-0.017,100.0,103.0,101.0,13.3,1505.2,340.2,-0.8,1.8,2471.53,13.29,0.059,112.7
2023-06-09T00:28:02,42.805,6.029,0.034,-0.003,0.005,101.0,102.0,101.0,13.3,1505.2,342.2,-0.8,1.8,2471.529,13.29,0.034,95.0
2023-06-09T00:31:02,42.805,6.029,0.037,0.006,0.012,100.0,103.0,100.0,13.4,1505.2,338.6,-0.8,1.8,2471.571,13.29,0.037,80.8
2023-06-09T00:34:02,42.805,6.029,0.031,0.012,0.002,100.0,102.0,100.0,13.4,1505.2,336.5,-0.8,1.8,2471.534,13.29,0.033,68.8
2023-06-09T00:37:02,42.805,6.029,0.049,-0.003,0.015,100.0,104.0,101.0,13.3,1505.2,324.2,-0.7,1.8,2471.521,13.29,0.049,93.5
2023-06-09T00:40:02,42.805,6.029,0.018,-0.002,-0.034,100.0,103.0,99.0,13.3,1505.2,335.2,-0.8,1.8,2471.548,13.29,0.018,96.3
2023-06-09T00:43:02,42.805,6.029,0.024,-0.002,-0.02,99.0,104.0,100.0,13.4,1505.2,336.2,-0.8,1.8,2471.526,13.29,0.024,94.8
2023-06-09T00:46:02,42.805,6.029,0.037,0.003,-0.004,100.0,104.0,99.0,13.3,1505.2,334.4,-0.7,1.8,2471.517,13.29,0.037,85.4
2023-06-09T00:49:02,42.805,6.029,0.094,-0.025,0.04,98.0,104.0,101.0,13.4,1505.2,344.2,-0.8,1.7,2471.536,13.29,0.097,104.9
2023-06-09T00:52:02,42.805,6.029,0.035,0.012,-0.005,101.0,104.0,99.0,13.4,1505.2,340.0,-0.8,1.8,2471.552,13.29,0.037,71.1
2023-06-09T00:55:03,42.805,6.029,0.032,0.011,-0.001,101.0,100.0,101.0,13.4,1505.2,332.4,-0.8,1.8,2471.532,13.29,0.033,71.0
2023-06-09T00:58:02,42.805,6.029,0.057,-0.021,0.001,100.0,101.0,101.0,13.4,1505.2,336.5,-0.8,1.8,2471.516,13.29,0.06,110.2
2023-06-09T01:04:02,42.805,6.029,0.01,0.0,-0.004,102.0,102.0,102.0,13.4,1505.2,333.4,-0.8,1.8,2471.57,13.28,0.01,90.0
2023-06-09T01:07:02,42.805,6.029,0.035,0.002,0.003,101.0,101.0,100.0,13.4,1505.2,322.7,-0.8,1.8,2471.57,13.28,0.035,86.7
2023-06-09T01:10:03,42.805,6.029,0.019,-0.002,-0.002,100.0,102.0,100.0,13.4,1505.2,338.6,-0.8,1.8,2471.546,13.28,0.019,96.0
2023-06-09T01:13:02,42.805,6.029,0.046,-0.023,0.006,100.0,102.0,100.0,13.4,1505.2,335.5,-0.7,1.8,2471.537,13.28,0.051,116.6
2023-06-09T01:16:02,42.805,6.029,0.024,-0.013,-0.044,101.0,102.0,100.0,13.3,1505.2,339.5,-0.8,1.8,2471.526,13.29,0.027,118.4
2023-06-09T01:19:02,42.805,6.029,0.036,0.003,-0.021,100.0,101.0,101.0,13.4,1505.2,332.4,-0.8,1.8,2471.471,13.29,0.036,85.2
2023-06-09T01:22:02,42.805,6.029,0.013,0.003,0.001,99.0,103.0,101.0,13.4,1505.2,319.1,-0.7,1.8,2471.5,13.29,0.013,77.0
2023-06-09T01:25:03,42.805,6.029,0.051,0.021,0.055,101.0,101.0,100.0,13.3,1505.2,325.8,-0.8,1.8,2471.467,13.29,0.055,67.6
2023-06-09T01:28:03,42.805,6.029,0.039,0.015,0.031,102.0,103.0,99.0,13.4,1505.2,322.7,-0.8,1.8,2471.508,13.29,0.041,69.0
2023-06-09T01:31:02,42.805,6.029,0.045,0.003,0.025,101.0,100.0,102.0,13.3,1505.2,324.9,-0.8,1.8,2471.474,13.29,0.045,86.2
2023-06-09T01:34:03,42.805,6.029,0.026,-0.013,-0.034,100.0,101.0,101.0,13.3,1505.2,323.1,-0.8,1.8,2471.49,13.29,0.029,116.6
2023-06-09T01:37:02,42.805,6.029,0.028,-0.012,-0.014,100.0,101.0,101.0,13.3,1505.2,335.0,-0.8,1.8,2471.481,13.29,0.03,113.2
2023-06-09T01:40:03,42.805,6.029,0.052,-0.012,-0.023,102.0,101.0,99.0,13.4,1505.2,336.0,-0.7,1.8,2471.508,13.29,0.053,103.0
2023-06-09T01:43:02,42.805,6.029,0.034,0.01,0.008,102.0,101.0,100.0,13.4,1505.2,329.0,-0.7,1.8,2471.51,13.29,0.035,73.6
2023-06-09T01:46:02,42.805,6.029,0.036,-0.027,-0.027,102.0,101.0,101.0,13.4,1505.2,341.5,-0.8,1.8,2471.492,13.29,0.045,126.9
2023-06-09T01:49:03,42.805,6.029,0.043,-0.008,0.023,100.0,104.0,100.0,13.4,1505.2,332.9,-0.8,1.8,2471.528,13.29,0.043,100.5
2023-06-09T01:52:02,42.805,6.029,0.041,-0.021,0.013,103.0,100.0,101.0,13.4,1505.2,340.1,-0.8,1.8,2471.457,13.29,0.046,117.1
2023-06-09T01:55:03,42.805,6.029,0.05,0.0,0.013,103.0,100.0,101.0,13.4,1505.2,341.9,-0.7,1.8,2471.461,13.29,0.05,90.0
2023-06-09T01:58:03,42.805,6.029,0.023,0.013,0.011,103.0,102.0,100.0,13.4,1505.2,335.0,-0.8,1.8,2471.462,13.29,0.026,60.5
2023-06-09T02:04:02,42.805,6.029,0.011,0.031,0.036,101.0,100.0,102.0,13.4,1505.2,328.2,-0.8,1.8,2471.469,13.28,0.032,19.5
2023-06-09T02:07:02,42.805,6.029,0.069,-0.037,-0.048,100.0,101.0,101.0,13.4,1505.2,324.3,-0.8,1.8,2471.486,13.28,0.078,118.2
2023-06-09T02:10:03,42.805,6.029,0.053,-0.028,-0.046,101.0,100.0,101.0,13.4,1505.2,320.4,-0.8,1.8,2471.487,13.28,0.059,117.9
2023-06-09T02:13:03,42.805,6.029,0.037,-0.015,-0.006,100.0,101.0,102.0,13.3,1505.2,335.4,-0.8,1.8,2471.489,13.28,0.039,112.1
2023-06-09T02:16:02,42.805,6.029,0.025,-0.008,-0.002,102.0,100.0,101.0,13.4,1505.2,340.6,-0.8,1.8,2471.486,13.29,0.026,107.7
2023-06-09T02:19:03,42.805,6.029,0.028,-0.027,-0.039,102.0,100.0,101.0,13.4,1505.2,348.2,-0.7,1.9,2471.448,13.29,0.038,134.0
2023-06-09T02:22:02,42.805,6.029,0.038,-0.026,-0.017,101.0,101.0,101.0,13.4,1505.2,339.6,-0.7,1.8,2471.51,13.29,0.046,124.4
2023-06-09T02:25:03,42.805,6.029,0.048,-0.021,-0.022,102.0,101.0,101.0,13.4,1505.2,346.2,-0.8,1.8,2471.451,13.29,0.052,113.6
2023-06-09T02:28:03,42.805,6.029,0.053,-0.023,0.031,100.0,100.0,101.0,13.4,1505.2,347.7,-0.8,1.8,2471.486,13.29,0.057,113.5
2023-06-09T02:31:02,42.805,6.029,0.058,-0.032,-0.021,102.0,101.0,101.0,13.3,1505.2,333.9,-0.8,1.8,2471.496,13.29,0.066,118.9
2023-06-09T02:34:03,42.805,6.029,0.044,-0.003,0.0,100.0,101.0,101.0,13.3,1505.2,329.0,-0.7,1.8,2471.469,13.29,0.044,93.9
2023-06-09T02:37:02,42.805,6.029,0.016,0.009,-0.006,102.0,100.0,101.0,13.4,1505.2,323.8,-0.7,1.8,2471.421,13.29,0.018,60.6
2023-06-09T02:40:03,42.805,6.029,0.051,-0.012,-0.004,100.0,103.0,101.0,13.3,1505.2,339.9,-0.7,1.8,2471.463,13.29,0.052,103.2
2023-06-09T02:43:03,42.805,6.029,0.019,-0.042,-0.034,103.0,101.0,99.0,13.3,1505.2,348.2,-0.8,1.8,2471.433,13.29,0.046,155.7
2023-06-09T02:46:02,42.805,6.029,0.024,0.0,-0.016,100.0,102.0,100.0,13.3,1505.2,333.8,-0.8,1.8,2471.435,13.29,0.024,90.0
2023-06-09T02:49:03,42.805,6.029,0.038,-0.043,-0.056,100.0,101.0,101.0,13.4,1505.2,348.9,-0.8,1.8,2471.45,13.29,0.057,138.5
2023-06-09T02:52:02,42.805,6.029,0.018,-0.023,-0.04,101.0,103.0,100.0,13.4,1505.2,342.4,-0.8,1.8,2471.455,13.29,0.029,142.0
2023-06-09T02:55:03,42.805,6.029,0.026,-0.009,-0.018,101.0,100.0,102.0,13.4,1505.2,335.4,-0.8,1.8,2471.423,13.29,0.027,109.1
2023-06-09T02:58:03,42.805,6.029,0.036,-0.015,-0.032,103.0,101.0,101.0,13.4,1505.2,320.1,-0.8,1.8,2471.422,13.29,0.039,112.6
2023-06-09T04:04:02,42.805,6.029,0.046,-0.01,-0.009,101.0,101.0,101.0,13.3,1505.1,326.3,-0.8,1.8,2471.932,13.27,0.047,102.3
2023-06-09T04:07:02,42.805,6.029,0.025,-0.016,-0.036,102.0,101.0,101.0,13.4,1505.2,329.5,-0.8,1.8,2471.795,13.28,0.029,122.6
2023-06-09T04:10:03,42.805,6.029,0.015,-0.023,-0.035,102.0,101.0,101.0,13.4,1505.2,345.3,-0.7,1.8,2471.688,13.28,0.027,146.9
2023-06-09T04:13:03,42.805,6.029,0.04,-0.019,-0.001,102.0,101.0,101.0,13.3,1505.2,343.4,-0.8,1.8,2471.627,13.28,0.044,115.4
2023-06-09T04:16:03,42.805,6.029,0.026,-0.023,-0.034,101.0,100.0,101.0,13.4,1505.2,346.2,-0.8,1.8,2471.55,13.28,0.034,131.5
2023-06-09T04:19:03,42.805,6.029,0.023,0.001,-0.011,101.0,101.0,102.0,13.4,1505.2,332.5,-0.8,1.8,2471.512,13.28,0.023,87.5
2023-06-09T04:22:02,42.805,6.029,0.035,-0.004,0.019,101.0,103.0,100.0,13.4,1505.2,340.5,-0.8,1.8,2471.478,13.28,0.035,96.5
2023-06-09T04:25:03,42.805,6.029,0.031,-0.002,-0.004,101.0,102.0,101.0,13.3,1505.2,338.9,-0.8,1.8,2471.442,13.28,0.031,93.7
2023-06-09T04:28:03,42.805,6.029,0.04,-0.005,0.008,101.0,101.0,101.0,13.3,1505.2,328.5,-0.8,1.8,2471.442,13.29,0.04,97.1
2023-06-09T04:31:02,42.805,6.029,0.027,0.001,-0.015,102.0,102.0,101.0,13.4,1505.2,329.2,-0.8,1.8,2471.419,13.29,0.027,87.9
2023-06-09T04:34:03,42.805,6.029,0.037,-0.02,0.018,101.0,102.0,101.0,13.4,1505.2,341.1,-0.8,1.8,2471.374,13.29,0.042,118.4
2023-06-09T04:37:02,42.805,6.029,0.034,-0.003,-0.027,102.0,102.0,100.0,13.4,1505.2,324.3,-0.8,1.8,2471.375,13.29,0.034,95.0
2023-06-09T04:40:03,42.805,6.029,-0.006,0.012,-0.009,101.0,101.0,101.0,13.3,1505.2,337.2,-0.8,1.8,2471.379,13.29,0.013,333.4
2023-06-09T04:43:03,42.805,6.029,0.023,0.005,-0.03,101.0,102.0,101.0,13.4,1505.2,330.0,-0.8,1.8,2471.358,13.29,0.023,77.7
2023-06-09T04:46:02,42.805,6.029,0.04,-0.005,-0.015,102.0,102.0,101.0,13.3,1505.2,343.4,-0.7,1.8,2471.352,13.29,0.04,97.1
2023-06-09T04:49:03,42.805,6.029,0.012,0.004,-0.033,103.0,100.0,102.0,13.4,1505.2,343.4,-0.7,1.8,2471.387,13.29,0.012,71.6
2023-06-09T04:52:03,42.805,6.029,0.019,-0.005,-0.015,103.0,101.0,102.0,13.4,1505.2,342.8,-0.8,1.8,2471.325,13.29,0.019,104.7
2023-06-09T04:55:03,42.805,6.029,0.035,-0.006,-0.029,102.0,101.0,101.0,13.4,1505.2,324.3,-0.8,1.8,2471.311,13.29,0.035,99.7
2023-06-09T04:58:03,42.805,6.029,0.03,-0.014,-0.004,102.0,101.0,101.0,13.4,1505.2,341.2,-0.8,1.8,2471.339,13.29,0.033,115.0
2023-06-09T05:04:02,42.805,6.029,0.025,-0.002,0.009,101.0,102.0,101.0,13.4,1505.2,345.3,-0.8,1.8,2471.396,13.28,0.025,94.6
2023-06-09T05:07:02,42.805,6.029,0.034,-0.002,-0.014,102.0,101.0,100.0,13.3,1505.2,319.9,-0.8,1.8,2471.364,13.28,0.034,93.4
2023-06-09T05:10:03,42.805,6.029,0.047,-0.026,-0.014,99.0,103.0,101.0,13.4,1505.2,332.5,-0.8,1.8,2471.405,13.28,0.053,118.9
2023-06-09T05:13:03,42.805,6.029,0.02,-0.008,0.005,101.0,102.0,101.0,13.4,1505.2,342.3,-0.8,1.8,2471.347,13.28,0.021,111.8
2023-06-09T05:16:02,42.805,6.029,0.054,-0.02,-0.002,102.0,102.0,101.0,13.3,1505.2,340.2,-0.8,1.8,2471.376,13.29,0.057,110.3
2023-06-09T05:19:03,42.805,6.029,0.041,-0.027,-0.039,102.0,101.0,101.0,13.4,1505.2,323.3,-0.8,1.8,2471.363,13.29,0.049,123.4
2023-06-09T05:22:03,42.805,6.029,0.04,-0.001,0.025,102.0,101.0,100.0,13.4,1505.2,338.0,-0.7,1.8,2471.345,13.29,0.04,91.4
2023-06-09T05:25:03,42.805,6.029,0.016,0.02,-0.006,101.0,102.0,101.0,13.3,1505.2,326.3,-0.8,1.8,2471.327,13.29,0.025,38.7
2023-06-09T05:28:03,42.805,6.029,0.026,-0.014,-0.005,102.0,101.0,101.0,13.4,1505.2,326.3,-0.8,1.8,2471.338,13.29,0.029,118.3
2023-06-09T05:31:02,42.805,6.029,0.015,-0.011,-0.036,102.0,102.0,101.0,13.4,1505.2,345.7,-0.8,1.8,2471.336,13.29,0.018,126.3
2023-06-09T05:34:03,42.805,6.029,0.009,0.009,0.018,102.0,102.0,101.0,13.4,1505.2,320.1,-0.8,1.8,2471.31,13.29,0.012,45.0
2023-06-09T05:37:03,42.805,6.029,0.018,-0.007,-0.035,100.0,101.0,101.0,13.3,1505.2,323.3,-0.8,1.8,2471.356,13.29,0.019,111.2
2023-06-09T05:40:03,42.805,6.029,0.027,-0.019,-0.026,101.0,102.0,100.0,13.4,1505.2,339.0,-0.8,1.8,2471.346,13.29,0.033,125.1
2023-06-09T05:43:03,42.805,6.029,0.058,-0.025,0.008,102.0,102.0,101.0,13.4,1505.2,345.7,-0.7,1.8,2471.377,13.29,0.063,113.3
2023-06-09T05:46:03,42.805,6.029,0.049,0.016,-0.022,102.0,102.0,100.0,13.4,1505.2,321.6,-0.8,1.8,2471.379,13.29,0.051,71.9
2023-06-09T05:49:03,42.805,6.029,0.039,-0.005,0.017,102.0,101.0,100.0,13.3,1505.2,340.4,-0.8,1.8,2471.35,13.29,0.039,97.3
2023-06-09T05:52:03,42.805,6.029,0.024,-0.003,0.02,101.0,101.0,101.0,13.4,1505.2,346.2,-0.8,1.8,2471.335,13.29,0.024,97.1
2023-06-09T05:55:03,42.805,6.029,0.024,-0.012,-0.037,101.0,102.0,100.0,13.4,1505.2,326.0,-0.7,1.8,2471.292,13.29,0.026,116.6
2023-06-09T05:58:03,42.805,6.029,0.02,0.008,-0.028,102.0,101.0,100.0,13.3,1505.2,333.4,-0.8,1.8,2471.354,13.29,0.021,68.2
2023-06-09T06:04:02,42.805,6.029,0.025,-0.022,-0.025,101.0,103.0,99.0,13.4,1505.2,347.9,-0.7,1.8,2471.407,13.28,0.033,131.3
2023-06-09T06:19:02,42.805,6.029,0.029,-0.005,-0.011,101.0,102.0,101.0,13.4,1505.2,343.3,-0.8,1.8,2471.392,13.29,0.029,99.8
2023-06-09T06:22:03,42.805,6.029,0.045,-0.023,-0.02,101.0,103.0,101.0,13.3,1505.2,333.8,-0.7,1.8,2471.383,13.29,0.05,117.1
2023-06-09T06:25:03,42.805,6.029,0.03,-0.009,-0.001,102.0,102.0,101.0,13.4,1505.2,333.4,-0.7,1.8,2471.35,13.29,0.031,106.7
2023-06-09T06:28:03,42.805,6.029,0.006,-0.002,-0.043,102.0,102.0,101.0,13.3,1505.2,344.2,-0.8,1.8,2471.383,13.29,0.006,108.4
2023-06-09T06:31:03,42.805,6.029,0.021,0.002,-0.032,102.0,103.0,101.0,13.4,1505.2,323.1,-0.8,1.8,2471.319,13.29,0.021,84.6
2023-06-09T06:34:03,42.805,6.029,0.021,-0.018,-0.029,101.0,104.0,101.0,13.3,1505.2,336.6,-0.8,1.8,2471.35,13.29,0.027,130.6
2023-06-09T06:37:03,42.805,6.029,0.048,-0.005,0.004,101.0,102.0,101.0,13.4,1505.2,329.1,-0.8,1.8,2471.368,13.29,0.048,95.9
2023-06-09T06:40:03,42.805,6.029,0.024,-0.003,-0.018,102.0,102.0,101.0,13.4,1505.2,345.6,-0.7,1.8,2471.349,13.29,0.024,97.1
2023-06-09T06:43:03,42.805,6.029,0.016,0.005,0.0,101.0,101.0,101.0,13.4,1505.2,342.2,-0.8,1.8,2471.326,13.29,0.016,72.6
2023-06-09T06:46:03,42.805,6.029,0.008,0.002,-0.022,101.0,102.0,101.0,13.3,1505.2,332.9,-0.8,1.8,2471.365,13.29,0.008,76.0
2023-06-09T06:49:03,42.805,6.029,0.024,0.015,-0.001,102.0,102.0,102.0,13.4,1505.2,324.9,-0.8,1.8,2471.35,13.29,0.028,58.0
2023-06-09T06:52:03,42.805,6.029,0.019,0.004,-0.003,102.0,102.0,101.0,13.4,1505.2,326.8,-0.7,1.8,2471.325,13.29,0.019,78.1
2023-06-09T06:55:03,42.805,6.029,0.022,-0.006,-0.017,102.0,102.0,101.0,13.4,1505.2,340.0,-0.8,1.8,2471.333,13.29,0.022,105.3
2023-06-09T06:58:03,42.805,6.029,0.015,-0.004,0.005,102.0,104.0,101.0,13.4,1505.2,328.4,-0.7,1.8,2471.322,13.29,0.015,104.9
2023-06-09T07:04:02,42.805,6.029,0.044,-0.02,0.012,102.0,102.0,101.0,13.4,1505.2,348.2,-0.8,1.8,2471.399,13.28,0.048,114.4
2023-06-09T07:07:03,42.805,6.029,0.027,0.004,-0.007,101.0,102.0,100.0,13.4,1505.2,331.8,-0.8,1.8,2471.394,13.28,0.027,81.6
2023-06-09T07:10:03,42.805,6.029,0.024,0.002,0.016,102.0,102.0,101.0,13.4,1505.2,322.7,-0.8,1.8,2471.392,13.28,0.024,85.2
2023-06-09T07:13:03,42.805,6.029,0.024,-0.003,-0.004,102.0,103.0,100.0,13.4,1505.2,336.1,-0.8,1.8,2471.368,13.29,0.024,97.1
2023-06-09T07:16:03,42.805,6.029,-0.004,0.025,-0.021,102.0,102.0,100.0,13.4,1505.2,350.7,-0.7,1.8,2471.362,13.29,0.025,350.9
2023-06-09T07:19:03,42.805,6.029,0.025,-0.004,0.001,102.0,101.0,102.0,13.3,1505.2,327.2,-0.8,1.8,2471.313,13.29,0.025,99.1
2023-06-09T07:22:03,42.805,6.029,0.021,-0.005,-0.032,101.0,102.0,101.0,13.4,1505.2,327.6,-0.8,1.8,2471.359,13.29,0.021,103.4
2023-06-09T07:25:03,42.805,6.029,0.026,-0.008,-0.003,102.0,102.0,101.0,13.4,1505.2,348.0,-0.8,1.8,2471.356,13.29,0.027,107.1
2023-06-09T07:28:03,42.805,6.029,0.031,0.014,-0.019,102.0,102.0,101.0,13.4,1505.2,321.8,-0.7,1.8,2471.346,13.29,0.034,65.7
